Location: Battersea Observatory
(44.4318°N, 76.3841°W)
Time: 23:05:54
(UTC-04:00)

Tiros 1 despin weight - Pass Details

Date: 24 January 2022
Orbit: 592 x 639 km, 48.2° (Epoch: 25 May)

Event Time Altitude Azimuth Distance (km) Brightness Sun altitude
Rises 00:03:17 0° 287° (WNW) 2,938 - -64.6°
Reaches altitude 10° 00:05:59 10° 273° (W) 2,030 - -64.7°
Maximum altitude 00:09:39 23° 222° (SW) 1,362 - -64.7°
Drops below altitude 10° 00:13:18 10° 170° (S) 2,022 - -64.8°
Sets 00:16:00 0° 156° (SSE) 2,925 - -64.8°
